Flag for Germany Weather past 2 weeks in Neubrandenburg, Mecklenburg-Western Pomerania, Germany

Now
62 °F

Partly sunny.


Feels Like: 62 °F
Forecast: 45 / 72 °F
Wind: 7 mph from Northwest

Location: Greifswald

Current Time: Jul 31, 2015 at 4:23:17 PM

Latest Report: Jul 31, 2015 at 4:00 PM


Visibility: 37 mi

Pressure: 30.05 "Hg

Humidity: 48%

Dew point: 42 °F

Location of NeubrandenburgLocation

Historic Weather in Neubrandenburg — Graph

°F

Neubrandenburg temperature yesterday

Maximum temperature yesterday: 61 °F (at 4:00 PM)
Minimum temperature yesterday: 53 °F (at 2:00 AM)
Average temperature yesterday: 57 °F

Past Weeks' High & Low Weather Summary

 TemperatureHumidityPressure
High80 °F (Jul 22, 4:00 PM)97% (Jul 18, 3:00 AM)30.10 "Hg (Jul 18, 3:00 AM)
Low51 °F (Jul 24, 5:00 AM)40% (Jul 26, 3:00 PM)29.44 "Hg (Jul 25, 6:00 PM)
Average62 °F74%29.81 "Hg
* Reported Jul 16 3:00 PM — Jul 31 3:00 PM, Neubrandenburg, Weather by CustomWeather, © 2015

Note: Actual official high and low records may vary slightly from our data, if they occured in-between our weather recording intervals... More about our weather records

Advertising

Neubrandenburg weather history for previous 24 hours

 ConditionsComfort  
Time TempWeatherWind HumidityBarometerVisibility
3:00 PM
Fri, Jul 31
61 °FOvercast.6 mph53%30.05 "Hg31 mi
2:00 PM60 °FOvercast.7 mph59%30.04 "Hg31 mi
1:00 PM59 °FOvercast.7 mph62%30.03 "Hg28 mi
12:00 PM57 °FOvercast.6 mph71%30.02 "Hg25 mi
10:00 AM57 °FOvercast.6 mph78%29.99 "Hg22 mi
9:00 AM56 °FOvercast.6 mph83%29.98 "Hg19 mi
8:00 AM53 °FOvercast.5 mph92%29.96 "Hg16 mi
7:00 AM53 °FLow clouds.7 mph92%29.94 "Hg17 mi
4:00 AM54 °FSprinkles. Low clouds.6 mph94%29.89 "Hg2 mi
3:00 AM55 °FOvercast.6 mph89%29.88 "Hg19 mi
2:00 AM54 °FOvercast.7 mph91%29.87 "Hg11 mi
1:00 AM55 °FOvercast.7 mph86%29.86 "Hg19 mi
10:00 PM
Thu, Jul 30
56 °FOvercast.8 mph83%29.83 "Hg28 mi
9:00 PM56 °FOvercast.7 mph85%29.82 "Hg28 mi
8:00 PM58 °FOvercast.8 mph78%29.80 "Hg28 mi
7:00 PM59 °FOvercast.8 mph72%29.79 "Hg37 mi
6:00 PM60 °FOvercast.9 mph70%29.78 "Hg40 mi
4:00 PM61 °FOvercast.9 mph64%29.75 "Hg28 mi
Weather by CustomWeather, © 2015

See weather overviewHow to use our weather pages